Greensboro, NC

10:54 PM EDT on July 29, 2016 (GMT -0400)
Piedmont Triad International

Weather History for KGSO - April, 2012

Change the Weather History Date:

Monday, April 30, 2012

  Actual Average Record
Temperature  
Mean Temperature 71 °F 63 °F  
Max Temperature 80 °F 74 °F 91 °F (1915)
Min Temperature 61 °F 51 °F 33 °F (1961)
Degree Days  
Heating Degree Days 0 4  
Month to date heating degree days 194 220  
Since 1 July heating degree days 2822 3546  
Cooling Degree Days 6 2  
Month to date cooling degree days 34 33  
Year to date cooling degree days 63 38  
Growing Degree Days 20 (Base 50)    
Moisture  
Dew Point 62 °F    
Average Humidity 79    
Maximum Humidity 100    
Minimum Humidity 58    
Precipitation  
Precipitation 0.00 in 0.10 in 0.99 in (1923)
Month to date precipitation 2.23 3.57  
Year to date precipitation 8.82 13.32  
Snow  
Snow 0.00 in 0.00 in 0.00 in ()
Month to date snowfall 0.0 0.0  
Since 1 July snowfall 1.6 7.5  
Snow Depth 0.00 in    
Sea Level Pressure  
Sea Level Pressure 30.16 in    
Wind  
Wind Speed 8 mph (SSE)    
Max Wind Speed 20 mph    
Max Gust Speed 26 mph    
Visibility 7 miles    
Events Fog    
T = Trace of Precipitation, MM = Missing Value Source: NWS Daily Summary

Daily Weather History Graph

Daily Weather History Graph

Search for Another Location

Airport or City:

Trip Planner

Search our weather history database for the weather conditions in past years. The results will help you decide how hot, cold, wet, or windy it might be!

Date:

Astronomy

Apr. 30, 2012 Rise Set
Actual Time 6:27 AM EDT 8:06 PM EDT
Civil Twilight 6:00 AM EDT 8:34 PM EDT
Nautical Twilight 5:27 AM EDT 9:07 PM EDT
Astronomical Twilight 4:52 AM EDT 9:42 PM EDT
Moon 2:12 PM EDT 2:39 AM EDT
Length of Visible Light 14h 34m
Length of Day
13h 39m
Waxing Gibbous, 63% of the Moon is Illuminated
Apr 30
Waxing Gibbous
May 5
Full
May 12
Last Quarter
May 20
New
May 28
First Quarter

Hourly Weather History & Observations

Time (EDT) Temp. Dew Point Humidity Pressure Visibility Wind Dir Wind Speed Gust Speed Precip Events Conditions
12:54 AM 64.0 °F 59.0 °F 84% 30.16 in 9.0 mi South 8.1 mph - N/A   Clear
1:54 AM 62.1 °F 57.9 °F 86% 30.15 in 8.0 mi SSE 4.6 mph - N/A   Clear
2:54 AM 62.1 °F 59.0 °F 90% 30.14 in 7.0 mi SSE 5.8 mph - N/A   Mostly Cloudy
3:03 AM 62.6 °F 59.0 °F 88% 30.16 in 7.0 mi South 6.9 mph - N/A   Overcast
3:39 AM 62.6 °F 59.0 °F 88% 30.17 in 6.0 mi SSE 3.5 mph - N/A   Overcast
3:54 AM 63.0 °F 60.1 °F 90% 30.15 in 6.0 mi Calm Calm - N/A   Overcast
4:21 AM 62.6 °F 60.8 °F 94% 30.17 in 6.0 mi East 4.6 mph - N/A   Overcast
4:54 AM 63.0 °F 60.1 °F 90% 30.15 in 5.0 mi ENE 3.5 mph - N/A   Overcast
5:54 AM 63.0 °F 61.0 °F 93% 30.17 in 3.0 mi East 3.5 mph - N/A   Overcast
6:08 AM 62.6 °F 60.8 °F 94% 30.19 in 3.0 mi East 4.6 mph - N/A   Overcast
6:22 AM 62.6 °F 60.8 °F 94% 30.20 in 1.5 mi East 4.6 mph - N/A   Overcast
6:40 AM 62.6 °F 60.8 °F 94% 30.21 in 0.8 mi East 4.6 mph - N/A   Overcast
6:54 AM 61.0 °F 61.0 °F 100% 30.19 in 0.2 mi ESE 5.8 mph - N/A Fog Fog
7:24 AM 62.6 °F 60.8 °F 94% 30.23 in 0.2 mi SSE 5.8 mph - N/A Fog Fog
7:54 AM 62.1 °F 62.1 °F 100% 30.22 in 0.5 mi South 6.9 mph - N/A Fog Fog
8:09 AM 62.6 °F 60.8 °F 94% 30.24 in 1.8 mi South 9.2 mph - N/A   Overcast
8:30 AM 62.6 °F 60.8 °F 94% 30.25 in 2.5 mi South 6.9 mph - N/A   Overcast
8:54 AM 64.9 °F 61.0 °F 87% 30.22 in 3.0 mi South 6.9 mph - N/A   Overcast
9:22 AM 66.2 °F 60.8 °F 83% 30.23 in 5.0 mi South 8.1 mph - N/A   Haze
9:54 AM 66.9 °F 61.0 °F 81% 30.22 in 6.0 mi South 10.4 mph - N/A   Haze
10:54 AM 66.9 °F 61.0 °F 81% 30.22 in 7.0 mi South 9.2 mph - N/A   Overcast
11:31 AM 69.8 °F 62.6 °F 78% 30.23 in 8.0 mi South 9.2 mph - N/A   Overcast
11:54 AM 70.0 °F 62.1 °F 76% 30.20 in 9.0 mi South 9.2 mph - N/A   Overcast
12:54 PM 73.0 °F 63.0 °F 71% 30.18 in 9.0 mi South 6.9 mph - N/A   Overcast
1:54 PM 75.9 °F 64.0 °F 67% 30.15 in 10.0 mi South 10.4 mph - N/A   Mostly Cloudy
2:13 PM 75.2 °F 62.6 °F 65% 30.17 in 10.0 mi SSE 8.1 mph - N/A   Mostly Cloudy
2:54 PM 77.0 °F 64.0 °F 64% 30.13 in 10.0 mi South 9.2 mph - N/A   Mostly Cloudy
3:54 PM 78.1 °F 64.0 °F 62% 30.11 in 10.0 mi Variable 5.8 mph - N/A   Mostly Cloudy
4:54 PM 79.0 °F 63.0 °F 58% 30.09 in 10.0 mi SSW 5.8 mph - N/A   Mostly Cloudy
5:54 PM 79.0 °F 63.0 °F 58% 30.08 in 10.0 mi South 10.4 mph - N/A   Mostly Cloudy
6:54 PM 77.0 °F 63.0 °F 62% 30.09 in 10.0 mi South 12.7 mph - N/A   Mostly Cloudy
7:54 PM 75.0 °F 64.0 °F 69% 30.08 in 10.0 mi South 9.2 mph - N/A   Scattered Clouds
8:54 PM 73.0 °F 64.9 °F 76% 30.07 in 10.0 mi South 13.8 mph - N/A   Partly Cloudy
9:54 PM 72.0 °F 64.9 °F 78% 30.10 in 10.0 mi South 11.5 mph - N/A   Scattered Clouds
10:54 PM 71.1 °F 64.9 °F 81% 30.11 in 10.0 mi South 11.5 mph 20.7 mph N/A   Scattered Clouds
11:47 PM 71.6 °F 66.2 °F 83% 30.13 in 9.0 mi South 13.8 mph - N/A   Mostly Cloudy
11:54 PM 71.1 °F 66.0 °F 84% 30.10 in 10.0 mi South 13.8 mph - N/A   Mostly Cloudy